www.pogodaiklimat.ru

Погода и климат >> Архив погоды >> Оман >> Al Mudhaibi


ПОГОДА в Al Mudhaibi

  • Прогноз погоды в Al Mudhaibi
  • Монитор погоды в Al Mudhaibi
  • Климат города

АРХИВ ПОГОДЫ в Al Mudhaibi

Время (UTC), дата Ветер
(напр.,м/с)
 
Видим.   Явления Облачность Т
(С)
Тd
(С)
f
(%)
Тe
(С)
Тes
(С)
Комфортность P
(гПа)
Po
(гПа)
Тmin
(С)
Tmax
(С)
R
(мм)
R24
(мм)
S
(см)
00 9.12 СВ 3 н/о н/о +13.3 +6.0 61 +12 +12 1015.5 972.0
06 9.12 ЮЗ 2 н/о н/о +20.3 +10.0 52 +22 +22 комфорт 1016.7 974.2 +12.4
12 9.12 ЮЗ 4 н/о н/о +25.5 +4.6 26 +25 +25 комфорт 1011.7 970.0
18 9.12 С 2 н/о н/о +19.4 +10.2 55 +21 +21 комфорт 1014.8 972.2 +26.0
00 10.12 СВ 2 н/о н/о +16.3 +11.2 72 +17 +17 1014.7 971.7
03 10.12 СВ 2 н/о н/о +16.3 +11.2 72 +17 +17 1014.7 971.7
06 10.12 С 7 н/о н/о +22.8 +7.2 37 +24 +24 комфорт 1016.7 974.5 +15.1
09 10.12 С 7 н/о н/о +22.8 +7.2 37 +24 +24 комфорт 1016.7 974.5 +15.1
12 10.12 С 6 н/о н/о +26.0 +3.5 23 +25 +25 комфорт 1012.8 971.1
18 10.12 С 3 н/о н/о +19.2 +2.5 33 +20 +20 1016.9 974.1 +26.8
21 10.12 С 3 н/о н/о +19.2 +2.5 33 +20 +20 1016.9 974.1 +26.8
00 11.12 В 2 н/о н/о +15.8 +2.3 40 +16 +16 1016.5 973.2
03 11.12 В 2 н/о н/о +15.8 +2.3 40 +16 +16 1016.5 973.2
06 11.12 СВ 1 н/о н/о +22.3 -0.7 22 +21 +21 комфорт 1018.9 976.5 +13.0
12 11.12 З 3 н/о н/о +26.6 -3.8 13 +24 +24 комфорт 1014.0 972.3
18 11.12 штиль 0 н/о н/о +19.1 -2.5 23 +19 +19 1016.6 973.8 +27.2
00 12.12 СВ 2 н/о н/о +14.3 +7.7 64 +14 +14 1015.2 971.8
06 12.12 Ю 1 н/о н/о +20.9 +8.4 45 +23 +23 комфорт 1016.2 973.7 +12.3
09 12.12 Ю 3 н/о н/о +25.6 +4.3 25 +25 +25 комфорт 1012.5 970.8
12 12.12 ЮЗ 3 н/о н/о +27.2 +1.3 19 +25 +25 комфорт 1010.9 969.4
15 12.12 Ю 3 н/о н/о +23.8 +2.4 25 +23 +23 комфорт 1013.1 971.0
18 12.12 СВ 4 н/о н/о +19.9 +4.8 37 +21 +21 комфорт 1015.1 972.5 +27.6
21 12.12 СВ 3 н/о н/о +17.5 +8.8 57 +18 +18 1014.8 971.9
00 13.12 С 3 н/о н/о +17.5 +9.3 59 +18 +18 1014.8 971.8
03 13.12 СЗ 1 н/о н/о +16.4 +8.2 58 +17 +17 1016.3 973.1
06 13.12 СВ 2 н/о н/о +22.2 +8.5 41 +23 +23 комфорт 1016.5 974.2 +15.1
09 13.12 С 3 н/о н/о +25.4 +6.7 30 +25 +25 комфорт 1013.7 971.9
12 13.12 ЮЗ 3 н/о н/о +26.5 +5.5 26 +26 +26 жарко 1012.1 970.5
15 13.12 ЮЗ 4 н/о н/о +23.7 +5.0 30 +24 +24 комфорт 1013.7 971.6
18 13.12 ЮВ 7 н/о н/о +19.6 +10.2 55 +20 +20 1015.7 973.1 +27.2
21 13.12 З 1 н/о н/о +17.1 +9.6 61 +18 +18 1016.5 973.5
00 14.12 СЗ 1 н/о н/о +15.5 +9.3 67 +16 +16 1016.1 972.9
03 14.12 н/о н/о +15.0 +9.8 71 1017.5 974.1
06 14.12 СЗ 2 н/о н/о +20.5 +9.6 50 +23 +23 комфорт 1018.6 975.9 +14.7
12 14.12 ЮВ 3 н/о н/о +24.1 +6.0 31 +24 +24 комфорт 1014.5 972.5
18 14.12 В 4 н/о н/о +18.2 +6.7 47 +18 +18 1017.1 974.2 +25.0
00 15.12 С 2 н/о н/о +15.2 +7.2 59 +15 +15 1016.9 973.6
06 15.12 З 3 н/о н/о +20.2 +7.9 45 +22 +22 комфорт 1019.4 976.7 +13.2
12 15.12 Ю 2 н/о н/о +25.1 +5.6 29 +25 +25 комфорт 1014.9 973.0
18 15.12 В 3 н/о н/о +18.2 +7.3 49 +18 +18 1019.0 976.0 +25.8

 

Местоположение метеостанции Al Mudhaibi (Оман): широта 22.51 долгота 58.13 высота над уровнем моря 378 м.

В архиве по умолчанию представлена погода в Al Mudhaibi за последнюю неделю. Архивные данные за месяц целиком и за предыдущие месяцы, начиная с января 2011 года, Вы можете получить, выбрав интересующий диапазон дат из раскрывающегося списка и нажав кнопку "Ввод!".

Внимание! Время в таблицах - всемирное. Для получения местного времени необходимо прибавить поправку, которая в Al Mudhaibi равна 4 ч.

Смотрите также архив погоды в соседних городах и на ближайших метеорологических станциях:

Погода в Ibra (Оман) (45 км)
Погода в Adam (Оман) (64 км)
Погода в Nizwa (Оман) (72 км)
Погода в Bidiya (Оман) (74 км)
Погода в Saiq (Оман) (81 км)
Погода в Samail (Оман) (90 км)
Погода в Bahla (Оман) (100 км)
Погода в Al Amerat (Оман) (116 км)
Погода в Jabal Shams (Оман) (120 км)
Погода в Seeb (Оман) (120 км)

Пояснения к столбцам:

Ветер - указаны скорость ветра в м/с - средняя за 10 мин, порывы в срок и между сроками (в фигурных скобках) и направление, откуда дует ветер: С - северный, СВ - северо-восточный, В - восточный, ЮВ - юго-восточный, Ю - южный, ЮЗ - юго-западный, З - западный, СЗ - северо-западный.
Видимость - горизонтальная дальность видимости в метрах или километрах. При видимости от 1 до 10 км при отсутствии осадков обычно наблюдается дымка, при ухудшении видимости до 1 км и менее - туман. В сухую погоду видимость может ухудшаться дымом, пылью или мглою.
Явления - указаны атмосферные явления, наблюдавшиеся в срок или в последний час перед сроком; фигурными скобками обозначены явления, наблюдавшиеся между сроками (за 1-3 часа до срока); квадратными скобками обозначены град или гололедные отложения с указанием их диаметра в мм.
Облачность - указаны через наклонную черту общая и нижняя облачность в баллах и высота нижней границы облаков в метрах; квадратными скобками обозначены формы облаков: Ci - перистые, Cs - перисто-слоистые, Cc - перисто-кучевые, Ac - высококучевые, As - высокослоистые, Sc - слоисто-кучевые, Ns - слоисто-дождевые, Cu - кучевые, Cb - кучево-дождевые. Подробнее классификацию облаков см. в Атласе облаков (PDF).
T - Температура воздуха - температура, измеренная на высоте 2 м над землей.
Td - Температура точки росы - температура, при понижении до которой содержащийся в воздухе водяной пар достигнет насыщения.
f - Относительная влажность воздуха - влажноcть воздуха, измеренная на высоте 2 м над землей.
Te - Эффективная температура - температура, которую ощущает одетый по сезону человек в тени. Характеристика душности погоды. При расчете учитывается влияние влажности воздуха и скорости ветра на теплоощущения человека.
Tes - Эффективная температура на солнце - температура, которую ощущает человек, с поправкой на солнечный нагрев. Характеристика знойности погоды. Зависит от высоты солнца над горизонтом, облачности и скорости ветра. Ночью, в пасмурную погоду, а также при ветре 12 м/с и более поправка равна нулю.
P - Атмосферное давление - приведенное к уровню моря атмосферное давление.
Po - Атмосферное давление - измеренное на уровне метеостанции атмосферное давление.
Tmin - Минимальная температура - минимум температуры воздуха на высоте 2 м над землей.
Tmax - Максимальная температура - максимум температуры воздуха на высоте 2 м над землей.
R - Количество осадков - Количество выпавших осадков за период времени, мм. При наведении курсора мыши на число - период времени, за который выпало указанное количество осадков.
R24 - Количество осадков - Количество выпавших осадков за 24 часа, мм.
S - Снежный покров - Высота снежного покрова, см. При наведении курсора мыши на число - состояние снежного покрова и степень покрытия местности в баллах.